This is the latest recevied weather packets stored in our database for station/object K1BES. If no packets are shown the sender has not sent any weather packets the latest 10 day(s).
| Time | Temp. | Humidity | Pressure | Rain* | Wind** | Luminosity | Snow |
|---|---|---|---|---|---|---|---|
| 1778068329 | 21.67° C | 97% | 1018.1 hPa | 0 mm | - | 52 W/m² | - |
| 1778068027 | 21.67° C | 97% | 1018.2 hPa | 0 mm | - | 40 W/m² | - |
| 1778067724 | 21.11° C | 97% | 1018.1 hPa | 0 mm | - | 37 W/m² | - |
| 1778067423 | 21.11° C | 97% | 1018.1 hPa | 0 mm | - | 34 W/m² | - |
| 1778067120 | 21.11° C | 96% | 1017.9 hPa | 0 mm | - | 30 W/m² | - |
| 1778066815 | 21.11° C | 97% | 1018.2 hPa | 0 mm | - | 26 W/m² | - |
| 1778066514 | 20.56° C | 96% | 1017.9 hPa | 0 mm | - | 23 W/m² | - |
| 1778066211 | 20.56° C | 96% | 1017.8 hPa | 0 mm | - | 19 W/m² | - |
| 1778065908 | 20.56° C | 96% | 1017.6 hPa | 0 mm | - | 14 W/m² | - |
| 1778065605 | 20.56° C | 96% | 1017.9 hPa | 0 mm | - | 10 W/m² | - |
| 1778065303 | 20.56° C | 96% | 1017.6 hPa | 0 mm | - | 7 W/m² | - |
| 1778064999 | 20.56° C | 96% | 1017.5 hPa | 0 mm | - | 4 W/m² | - |
| 1778064696 | 20.56° C | 96% | 1017.6 hPa | 0 mm | - | 3 W/m² | - |
| 1778064394 | 20.56° C | 96% | 1017.5 hPa | 0 mm | - | 1 W/m² | - |
| 1778064092 | 20.56° C | 96% | 1017.6 hPa | 0 mm | - | 1 W/m² | - |
| 1778063789 | 20.56° C | 96% | 1017.5 hPa | 0 mm | - | 0 W/m² | - |
| 1778063486 | 20.56° C | 96% | 1017.6 hPa | 0 mm | - | 0 W/m² | - |
| 1778063184 | 20.56° C | 96% | 1017.3 hPa | 0 mm | - | 0 W/m² | - |
| 1778062881 | 20.56° C | 96% | 1017.4 hPa | 0 mm | - | 0 W/m² | - |
| 1778062577 | 20.56° C | 96% | 1017.2 hPa | 0 mm | - | 0 W/m² | - |
| 1778062274 | 20.56° C | 96% | 1017.2 hPa | 0 mm | - | 0 W/m² | - |
| 1778061973 | 20.56° C | 95% | 1017.1 hPa | 0 mm | - | 0 W/m² | - |
| 1778061670 | 20.56° C | 95% | 1017 hPa | 0 mm | - | 0 W/m² | - |
| 1778061369 | 20.56° C | 95% | 1017.2 hPa | 0 mm | - | 0 W/m² | - |
| 1778061065 | 20.56° C | 95% | 1017.1 hPa | 0 mm | - | 0 W/m² | - |
* Rain latest hour (hover to see other rain measurements)
** Current wind speed in m/s (hover to see current wind gust speed)